Airfield :
LOGIN :

Register | Disclaimer

   EN    FR    IT 

 










Legend :    VFR   Marginal VFR   IFR   Intensive IFR   Very Intensive IFR
Visi :
Ceiling :
>= 8 km
>= 3000ft
5 to 8 km
1000 to 3000 ft
1500m to 5 km
500 to 1000 ft
800 to 1500m
200 to 500 ft
< 800m
< 200 ft
Symbols :   Thunderstorms  Fog  Heavy snow  Heavy precipitations  Wind > 20 kt
SIGMETs :     Misc.  Thunderstorms  Icing  Turbulence  Mountain Waves  Volcanic Ashes







- Airport Elevation : 2776 ft
- IATA code : VLL


LEVD - Valladolid

CURRENT METAR :
  • 181200Z 07010KT CAVOK 13/03 Q1022

EXPIRED METARs :
  • 181130Z 07010KT CAVOK 12/03 Q1022
  • 181100Z 06011KT CAVOK 11/02 Q1023
  • 181030Z 06012KT 030V100 CAVOK 10/02 Q1023
  • 181000Z 07011KT 050V110 CAVOK 09/02 Q1022
  • 180930Z 08009KT CAVOK 07/01 Q1022

TAF TAF LEVD
Valid from the 18 at 12:00 until the 19 at 12:00 UTC


181100Z 1812/1912 06010KT CAVOK TX15/1814Z TNM02/1907Z
PROB40
TEMPO 1904/1909 2000 BR BKN004
No reported NOTAMs for that airfield.



MET'MAP, your aeronautical weather chart ! - Copyright ORBIFLY December 2007 - Disclaimer

ORBIFLY MET'MAP TEAM :

Programming & Development : Alexandra Zaïnal
Concept & Development : Baudouin d'Aumeries
Co-Development & Prog : Marc-Olivier Méhu
Technical & hardware support : Manuel Goepfert

Contact : metmap@orbifly.com




SOURCES & CREDITS :

   NOAA